Regional Weather Roundup
Issued by NWS

Home | Current Version | Previous Version | Text Only | Print | Product List | Glossary Off
Versions: 1 2 3 4 5 6 7 8 9 10 11 12 13 14 15 16 17 18 19 20 21 22 23 24 25 26 27 28 29 30 31 32 33 34 35 36 37 38 39 40 41 42 43 44 45 46 47 48 49 50

000
ASUS45 KBOU 300207
RWRCO

WEATHER ROUNDUP FOR COLORADO
NATIONAL WEATHER SERVICE DENVER/BOULDER CO
800 PM MDT WED MAR 29 2017

NOTE: "FAIR" INDICATES FEW OR NO CLOUDS BELOW 12000 FEET WITH NO
SIGNIFICANT WEATHER AND/OR OBSTRUCTIONS TO VISIBILITY.

COZ001>005-013-030-031-300300-
...NORTHWEST COLORADO...

CITY           SKY/WX    TMP DP  RH WIND       PRES   REMARKS
CRAIG          FAIR      41  27  57 SW8       30.05F
HAYDEN         FAIR      41  25  52 SW7       30.06S
MEEKER         FAIR      43  31  62 N3        30.06S
MOUNT WERNER   NOT AVBL
STEAMBOAT SPGS FAIR      42  27  55 CALM      30.07R
WALDEN         NOT AVBL
$$

COZ006>008-011-300300-
...WEST CENTRAL VALLEYS...

CITY           SKY/WX    TMP DP  RH WIND       PRES   REMARKS
GRAND JUNCTION FAIR      55  27  34 W6        30.00S
MONTROSE       FAIR      51  26  37 CALM      30.06S
EAGLE          PTCLDY    48  25  40 CALM      30.06R
RIFLE          FAIR      52  26  36 N5        30.03S
DELTA          FAIR      58  23  25 W9        30.02S
NUCLA          FAIR      50  21  32 NW7       30.08S
$$

COZ017>023-064>068-300300-
...SOUTHWEST COLORADO...

CITY           SKY/WX    TMP DP  RH WIND       PRES   REMARKS
DURANGO        FAIR      51  12  21 NW12      29.99R
CORTEZ         FAIR      52  22  30 NW10      30.03S
PAGOSA SPRINGS FAIR      47  17  31 N3        30.05R
TELLURIDE      FAIR      38  14  37 CALM      30.15F
WOLF CREEK PAS FAIR      27  10  50 CALM      30.22R
$$

COZ009-010-012-014-032>034-037-058>063-300300-
...CENTRAL COLORADO...

CITY           SKY/WX    TMP DP  RH WIND       PRES   REMARKS
ASPEN          FAIR      43  22  43 NW10      30.06S
BUENA VISTA    FAIR      42  13  31 W7        30.05R
COPPER MTN     FAIR      28  10  47 MISG      30.16S
BERTHOUD PASS  CLOUDY    18   7  62 MISG      30.14R
COTTONWOOD PAS FAIR      39  12  33 W10G17    30.10R
GUNNISON       FAIR      43  26  51 W5        30.08R
KREMMLING      FAIR      45  27  49 N3        30.08F
LEADVILLE      FAIR      32  14  47 N8        30.10R WCI  25
MONARCH PASS   FAIR      28  16  59 W9        30.28R WCI  20
SALIDA         FAIR      50  13  22 W8        30.10R
SUNLIGHT       FAIR      28  19  69 W9G16     30.20F WCI  20
WILKERSON PASS FAIR      30  16  55 W6        30.15S WCI  24
$$

COZ069>075-300300-
...SAN LUIS VALLEY/SANGRE DE CRISTO MOUNTAINS...

CITY           SKY/WX    TMP DP  RH WIND       PRES   REMARKS
ALAMOSA        FAIR      47  16  29 NW12      30.00R
LA VETA PASS   NOT AVBL
SAGUACHE       FAIR      45  18  33 N15G21    30.03S
$$

COZ035-036-038>040-300300-
...NORTHERN COLORADO FRONT RANGE...

CITY           SKY/WX    TMP DP  RH WIND       PRES   REMARKS
DENVER INTL AP FAIR      43  33  68 E8        29.97S
DMNS CITY PARK   N/A     49  32  51 E13       29.97S
AURORA         PTCLDY    43  35  72 SE7       29.98S
FRONT RANGE AP PTCLDY    45  36  70 NE14      29.99R
ERIE MUNI ARPT FAIR      51  27  38 E7          N/A
BOULDER MUN AP FAIR      52  30  43 W5        29.97S
CENTENNIAL     FAIR      46  33  60 E7        29.98S
BROOMFIELD     NOT AVBL
FORT COLLINS   FAIR      52  28  39 NE7       29.95R
LONGMONT       FAIR      53  27  35 E6        29.98R
$$

COZ041-046-047-076>085-087-088-300300-
...PIKES PEAK/PALMER DIVIDE AND SOUTHERN FOOTHILLS...

CITY           SKY/WX    TMP DP  RH WIND       PRES   REMARKS
COLO. SPRINGS  FAIR      46  26  45 N7        30.00S
A. F. ACADEMY  NOT AVBL
SCHRIEVER AFB  FAIR      43  31  62 N8        30.01R
ELLICOTT       FAIR     N/A N/A N/A E13       29.98F
FALCON         FAIR      39  30  69 N6        30.02S
FORT CARSON    PTCLDY    46  30  53 NW9       29.99R
LIMON          FAIR      39  34  82 NE5       29.98S
MONUMENT HILL  FAIR      36  32  87 CALM      30.03S
TRINIDAD       FAIR      44  33  65 CALM      30.02S
$$

COZ042>045-048>051-090-091-300300-
...NORTHEAST COLORADO...

CITY           SKY/WX    TMP DP  RH WIND       PRES   REMARKS
GREELEY ARPT   FAIR      47  32  56 E8        29.95S
AKRON          FAIR      38  32  79 E8        29.96F
BURLINGTON     CLOUDY    43  38  82 N10       29.95S
WRAY           NOT AVBL
STERLING       FAIR      45  36  70 E3        29.95S
HOLYOKE        FAIR      43  37  81 N5        29.96F
FORT MORGAN    FAIR      43  36  75 E10       29.96S
$$

COZ086-089-092>099-300300-
...SOUTHEAST COLORADO...

CITY           SKY/WX    TMP DP  RH WIND       PRES   REMARKS
PUEBLO         FAIR      52  34  50 SE6       29.98R
LA JUNTA       FAIR      47  35  63 CALM      29.97S
LAMAR          FAIR      44  37  76 N7        29.94F
SPRINGFIELD      N/A     39  36  89 N9        29.94S
$$



USA.gov is the U.S. government's official web portal to all federal, state and local government web resources and services.